Location: Newark
(13.8117°N, 3.6025°W)
Time: 01:14:46
(UTC+00:00)

Vanguard 2 Rocket - All Passes

Search period start: 25 August 2019 00:00
Search period end: 04 September 2019 00:00
Orbit: 553 x 3327 km, 32.9° (Epoch: 24 August)

Date Brightness Start Highest point End Pass type
(mag) Time Alt. Az. Time Alt. Az. Time Alt. Az.
25 Aug - 00:55:36 10° WSW 01:02:49 64° NNW 01:16:04 10° NE visible
25 Aug - 03:10:24 10° WNW 03:20:39 38° N 03:36:40 10° ENE visible
25 Aug - 05:26:52 10° NW 05:41:44 42° NNE 06:00:27 10° ENE visible
25 Aug - 07:43:35 10° NW 08:03:07 67° NNE 08:21:33 10° ESE daylight
25 Aug - 10:02:00 10° WNW 10:22:04 63° SW 10:36:53 10° SE daylight
25 Aug - 12:27:09 10° W 12:38:01 19° SW 12:46:26 10° S daylight
25 Aug - 21:47:45 10° SSE 21:50:15 13° SE 21:53:14 10° ESE night (unlit)
25 Aug - 23:56:32 10° WSW 00:02:37 88° NNW 00:13:46 10° ENE visible
26 Aug - 02:10:17 10° W 02:18:51 40° NNW 02:33:08 10° NE visible
26 Aug - 04:26:11 10° WNW 04:38:45 37° N 04:56:19 10° ENE visible
26 Aug - 06:42:22 10° NW 07:00:05 56° NNE 07:19:26 10° E daylight
26 Aug - 08:59:33 10° WNW 09:20:02 81° SW 09:36:56 10° SE daylight
26 Aug - 11:21:11 10° W 11:37:07 32° SW 11:48:56 10° SSE daylight
26 Aug - 22:57:55 10° SW 23:03:03 57° SE 23:11:45 10° ENE night (unlit)
27 Aug - 01:10:31 10° W 01:17:42 45° NNW 01:30:13 10° NE visible
27 Aug - 03:25:48 10° WNW 03:36:13 35° N 03:51:57 10° ENE visible
27 Aug - 05:41:35 10° NW 05:57:03 47° NNE 06:16:20 10° E visible
27 Aug - 07:57:49 10° WNW 08:17:33 83° NNE 08:36:11 10° ESE daylight
27 Aug - 10:17:02 10° WNW 10:35:48 46° SW 10:50:14 10° SSE daylight
27 Aug - 12:48:50 10° WSW 12:52:09 11° SW 12:55:13 10° SSW daylight
27 Aug - 21:59:53 10° SSW 22:03:57 28° SE 22:09:46 10° E night (unlit)
28 Aug - 00:11:06 10° WSW 00:17:10 56° NNW 00:27:56 10° NE visible
28 Aug - 02:25:40 10° WNW 02:34:15 33° N 02:47:54 10° NE visible
28 Aug - 04:41:09 10° NW 04:54:12 40° NNE 05:12:20 10° E visible
28 Aug - 06:56:39 10° NW 07:14:47 68° NNE 07:34:32 10° ESE daylight
28 Aug - 09:14:06 10° WNW 09:33:58 63° SW 09:50:41 10° SE daylight
28 Aug - 11:38:31 10° W 11:50:59 21° SW 12:00:59 10° S daylight
28 Aug - 21:03:27 10° SSE 21:04:58 11° SE 21:06:38 10° ESE night (unlit)
28 Aug - 23:12:04 10° WSW 23:17:13 81° NNW 23:26:11 10° ENE night (unlit)
29 Aug - 01:25:47 10° WNW 01:32:52 34° N 01:44:32 10° NE visible
29 Aug - 03:40:59 10° NW 03:51:44 35° N 04:07:46 10° ENE visible
29 Aug - 05:56:00 10° NW 06:11:59 56° NNE 06:31:54 10° E daylight
29 Aug - 08:12:07 10° WNW 08:31:41 79° SW 08:50:20 10° SE daylight
29 Aug - 10:32:54 10° W 10:49:35 33° SW 11:03:02 10° SSE daylight
29 Aug - 22:13:23 10° SW 22:17:49 58° SE 22:24:47 10° ENE night (unlit)
30 Aug - 00:26:08 10° W 00:32:04 38° NNW 00:42:01 10° NE visible
30 Aug - 02:41:01 10° NW 02:49:44 31° N 03:03:13 10° ENE visible
30 Aug - 04:55:45 10° NW 05:09:22 46° NNE 05:28:17 10° E visible
30 Aug - 07:10:53 10° WNW 07:29:08 84° NNE 07:49:08 10° ESE daylight
30 Aug - 09:29:10 10° WNW 09:47:48 46° SW 10:03:56 10° SSE daylight
30 Aug - 11:59:10 10° WSW 12:05:19 12° SW 12:10:51 10° SSW daylight
30 Aug - 21:15:15 10° SSW 21:18:48 26° SE 21:23:25 10° E night (unlit)
30 Aug - 23:26:45 10° W 23:31:49 47° NNW 23:40:17 10° NE night (unlit)
31 Aug - 01:41:13 10° WNW 01:48:14 28° N 01:59:14 10° NE visible
31 Aug - 03:55:48 10° NW 04:07:04 38° NNE 04:23:51 10° E visible
31 Aug - 06:10:15 10° NW 06:26:33 69° NNE 06:47:00 10° ESE daylight
31 Aug - 08:26:42 10° WNW 08:45:39 61° SW 09:03:59 10° SE daylight
31 Aug - 10:50:13 10° W 11:03:39 22° SW 11:15:04 10° S daylight
31 Aug - 20:18:47 10° SSE 20:19:45 11° SE 20:20:45 10° SE night (unlit)
31 Aug - 22:27:37 10° WSW 22:32:05 71° NNW 22:39:09 10° NE night (unlit)
01 Sep - 00:41:31 10° WNW 00:47:16 28° N 00:56:15 10° NE visible
01 Sep - 02:56:05 10° NW 03:05:09 31° NNE 03:19:04 10° ENE visible
01 Sep - 05:10:04 10° NW 05:24:09 56° NNE 05:43:53 10° ESE visible
01 Sep - 07:25:13 10° WNW 07:43:16 77° SW 08:03:12 10° SE daylight
01 Sep - 09:45:04 10° W 10:01:46 33° SW 10:16:39 10° SSE daylight
01 Sep - 21:28:48 10° SW 21:32:48 61° SE 21:38:23 10° ENE night (unlit)
01 Sep - 23:41:54 10° WNW 23:46:46 30° NNW 23:54:16 10° NE visible
02 Sep - 01:56:31 10° NW 02:03:39 26° N 02:14:33 10° ENE visible
02 Sep - 04:10:17 10° NW 04:22:03 45° NNE 04:39:52 10° E visible
02 Sep - 06:24:27 10° WNW 06:40:50 86° NE 07:01:32 10° ESE daylight
02 Sep - 08:41:48 10° WNW 08:59:38 45° SW 09:17:08 10° SSE daylight
02 Sep - 11:10:28 10° WSW 11:18:16 13° SW 11:25:22 10° SSW daylight
02 Sep - 20:30:25 10° SSW 20:33:46 27° SE 20:37:39 10° E visible
02 Sep - 22:42:26 10° W 22:46:43 37° NNW 22:53:10 10° NE night (unlit)
03 Sep - 00:57:00 10° NW 01:02:35 23° N 01:10:52 10° NE visible
03 Sep - 03:10:46 10° NW 03:20:19 35° NNE 03:35:12 10° E visible
03 Sep - 05:24:16 10° NW 05:38:35 70° NNE 05:58:57 10° ESE visible
03 Sep - 07:39:50 10° WNW 07:57:19 60° SW 08:16:45 10° SE daylight
03 Sep - 10:02:23 10° W 10:16:05 22° SW 10:28:39 10° S daylight
03 Sep - 19:33:10 10° SSE 19:34:35 12° SE 19:36:03 10° ESE visible
03 Sep - 21:43:07 10° WSW 21:47:07 59° NNW 21:52:40 10° NE night (unlit)
